STARLINK-31176, 58745

Orbit data source: Space-Track

STARLINK-31176, 58745 is a payload satellite owned by SpaceX/Seattle (US) in LEO that was launched on Sun, 07 Jan 2024 UTC via an FALCON 9 launch vehicle from the Air Force Eastern Test Range (AFETR). Payload-class satellites include a variety of spacecraft equipped with specific instruments for various scientific and technological missions. These include communications satellites like Starlink; space stations such as the ISS; scientific satellites like the Hubble; Earth observation satellites from companies like Planet Labs, Umbra, and HawkEye 360; GPS; miniature CubeSats for education and research; and military/defense satellites.

Loading next visibility...
Identifier
58745, 2024-005T
Orbit
LEO
Country
Flag of USUS
Related business
Manufacturer
SpaceX/Seattle
Mission
Operational Commercial Communications
Bus & Motor
STARLINK V2M, Unknown motor
Mass
730 kg wet, ~700 kg dry
Launch date (UTC)
2024-01-07 (2 years ago)
Launch vehicle
FALCON 9
Launch site
Air Force Eastern Test Range (AFETR)
Object type
Payload
Rocket body
Debris
Shape & HBR
Box + 2 Pan, 17.7 m
Radar Cross Section
33.884 m², Large (>1 m²)

Expand to show TLE details & history
Last TLE update: 3 days ago

TLE from 3 days ago
0 STARLINK-31176
1 58745U 24005T   26170.89409539 -.00000099  00000-0  59662-5 0  9995
2 58745  43.0173   2.6461 0002004 310.5130  49.5547 15.27444753136115
Epoch: 2026-06-19T21:27Z
TLE epoch observation values (Epoch: 2026-06-19T21:27:29.841Z)
Latitude
-0.00004°
Longitude
132.6552°
Altitude
482.34 km
Speed
7.627 km/s
True Right ascension
00h 10m 35s
True Declination
0° 00' 00"
Sunlit
Object was in daylight at epoch
Visualization orbit readout
Latitude
Unknown
Longitude
Unknown
Altitude
Unknown
Speed
Unknown
Apparent Right ascension
Unknown
Apparent Declination
Unknown
Sunlit
N/A
Visualization observer readout
Local Sidereal Time
21:24:28
Azimuth
Unknown
Elevation
Unknown
Doppler factor
Unknown
Orbital elements
Apogee altitude
486.772 km
Perigee altitude
484.021 km
Semi-major axis
6,863.533 km
Eccentricity
0.0002
Inclination
43.0173°
RAAN
2.6461°
Arg. of periapsis
310.513°
True anomaly
49.57218°
Mean anomaly
49.5547°
Eccentric anomaly
49.56344°
Mean motion
3.81699 °/min
Orbital period
94.32 mins
BSTAR
0.0000059662
Loading maneuver chart data...
Computing Atmospheric mass density...
Loading historical data...
Loading historical data...
Loading historical data...
Loading historical data...
Loading historical data...
Loading historical data...
Loading historical data...

Documentation

Showing up to 5 results
|